Location: ?????????
(54.7630°N, 39.4991°E)
Time: 07:25:35
(UTC+00:00)

Cosmos 1805 - Pass Details

Date: 14 April 2026
Orbit: 415 x 415 km, 82.5° (Epoch: 12 May)

Event Time Altitude Azimuth Distance (km) Brightness Sun altitude
Rises 22:23:48 0° 352° (N) 2,380 7.6 -24.3°
Reaches altitude 10° 22:25:55 10° 0° (N) 1,509 6.5 -24.2°
Enters shadow 22:28:26 37° 40° (NE) 674 4.2 -24.1°
